EXS64VW LEAL-EGBB

Flight info

Callsign EXS64VW
Flight time N/A
Altitude 36000
Route ASTRO L150 RBO N867 BLV DCT DOSUL N75 DELOG DCT NOVAN DCT TERKU DCT RUSIB DCT NOZHU DCT SHIRI DCT TOJAQ P16 EPACE N91 FIGZI
Aircraft A21N/M-SDE2E3FGHIRWXY/LB1

Departure

Time 2026-05-06 22:37
Airport Alicante-Elche Miguel Hernández Airport (LEAL)

Arrival

Time N/A
Airport Birmingham Airport (EGBB)
Time Latitude Longitude Altitude Speed Heading
2026-05-06 22:08 38.28470 -0.55862 101 ft 0 kts 10°
2026-05-06 22:28 38.28467 -0.55863 101 ft 3 kts
2026-05-06 22:28 38.28441 -0.55867 102 ft 4 kts 357°
2026-05-06 22:29 38.28415 -0.55863 102 ft 4 kts 328°
2026-05-06 22:29 38.28399 -0.55845 103 ft 1 kts 280°
2026-05-06 22:29 38.28399 -0.55844 103 ft 0 kts 280°
2026-05-06 22:32 38.28402 -0.55864 103 ft 5 kts 279°
2026-05-06 22:32 38.28411 -0.55933 106 ft 11 kts 280°
2026-05-06 22:32 38.28429 -0.56060 108 ft 18 kts 280°
2026-05-06 22:33 38.28452 -0.56236 109 ft 22 kts 278°
2026-05-06 22:33 38.28479 -0.56423 115 ft 21 kts 281°
2026-05-06 22:33 38.28504 -0.56600 120 ft 20 kts 279°
2026-05-06 22:33 38.28528 -0.56774 122 ft 19 kts 280°
2026-05-06 22:34 38.28550 -0.56930 134 ft 16 kts 280°
2026-05-06 22:34 38.28568 -0.57064 139 ft 15 kts 280°
2026-05-06 22:34 38.28586 -0.57187 144 ft 13 kts 281°
2026-05-06 22:34 38.28602 -0.57296 149 ft 12 kts 280°
2026-05-06 22:35 38.28616 -0.57398 152 ft 12 kts 278°
2026-05-06 22:35 38.28616 -0.57467 154 ft 11 kts 257°
2026-05-06 22:35 38.28558 -0.57502 156 ft 9 kts 195°
2026-05-06 22:35 38.28490 -0.57520 157 ft 11 kts 181°
2026-05-06 22:36 38.28444 -0.57445 155 ft 14 kts 97°
2026-05-06 22:36 38.28420 -0.57269 146 ft 33 kts 101°
2026-05-06 22:36 38.28329 -0.56622 120 ft 115 kts 100°
2026-05-06 22:36 38.28150 -0.55334 153 ft 173 kts 99°
2026-05-06 22:37 38.27932 -0.53798 898 ft 177 kts 100°
2026-05-06 22:37 38.27692 -0.52243 1828 ft 180 kts 97°
2026-05-06 22:37 38.27714 -0.50594 2404 ft 197 kts 75°
2026-05-06 22:37 38.28375 -0.49061 3060 ft 204 kts 44°
2026-05-06 22:38 38.29653 -0.48239 3679 ft 212 kts
2026-05-06 22:38 38.31147 -0.48496 4183 ft 230 kts 336°
2026-05-06 22:38 38.32497 -0.49849 4474 ft 257 kts 312°
2026-05-06 22:38 38.33679 -0.51595 4989 ft 272 kts 311°
2026-05-06 22:39 38.34899 -0.53458 5884 ft 275 kts 310°
2026-05-06 22:39 38.36132 -0.55304 6896 ft 273 kts 311°
2026-05-06 22:39 38.37388 -0.57128 7788 ft 275 kts 311°
2026-05-06 22:39 38.38660 -0.58974 8639 ft 279 kts 310°
2026-05-06 22:40 38.39938 -0.60842 9534 ft 281 kts 310°
2026-05-06 22:40 38.41226 -0.62735 10309 ft 286 kts 309°
2026-05-06 22:40 38.42577 -0.64731 10629 ft 308 kts 309°
2026-05-06 22:40 38.44024 -0.66876 10895 ft 329 kts 309°
2026-05-06 22:41 38.47053 -0.71358 12352 ft 336 kts 308°
2026-05-06 22:41 38.48587 -0.73630 13120 ft 339 kts 308°
2026-05-06 22:41 38.50131 -0.75919 13856 ft 342 kts 308°
2026-05-06 22:42 38.51689 -0.78233 14547 ft 344 kts 308°
2026-05-06 22:42 38.53271 -0.80541 15220 ft 348 kts 310°
2026-05-06 22:42 38.55070 -0.82642 15866 ft 354 kts 318°
2026-05-06 22:42 38.57078 -0.84496 16491 ft 358 kts 321°
2026-05-06 22:43 38.59119 -0.86348 17126 ft 361 kts 321°
2026-05-06 22:43 38.61171 -0.88221 17747 ft 364 kts 320°
2026-05-06 22:43 38.63234 -0.90111 18358 ft 367 kts 320°
2026-05-06 22:43 38.65319 -0.92024 18880 ft 370 kts 320°
2026-05-06 22:44 38.67422 -0.93954 19403 ft 373 kts 320°
2026-05-06 22:44 38.69536 -0.95894 19926 ft 376 kts 320°
2026-05-06 22:44 38.71672 -0.97856 20435 ft 379 kts 320°
2026-05-06 22:44 38.73824 -0.99835 20951 ft 382 kts 320°
2026-05-06 22:45 38.75991 -1.01829 21462 ft 385 kts 319°
2026-05-06 22:45 38.78154 -1.03820 21879 ft 388 kts 319°
2026-05-06 22:45 38.80371 -1.05863 22397 ft 390 kts 319°
2026-05-06 22:45 38.82582 -1.07902 22891 ft 393 kts 319°
2026-05-06 22:46 38.84807 -1.09955 23390 ft 395 kts 319°
2026-05-06 22:46 38.87049 -1.12025 23814 ft 398 kts 319°
2026-05-06 22:46 38.89298 -1.14102 24242 ft 399 kts 319°
2026-05-06 22:46 38.91556 -1.16189 24660 ft 401 kts 318°
2026-05-06 22:47 38.93823 -1.18287 25074 ft 402 kts 318°
2026-05-06 22:47 38.96097 -1.20394 25467 ft 404 kts 318°
2026-05-06 22:47 38.98385 -1.22515 25858 ft 406 kts 318°
2026-05-06 22:47 39.00675 -1.24640 26248 ft 408 kts 318°
2026-05-06 22:48 39.02988 -1.26788 26633 ft 410 kts 317°
2026-05-06 22:48 39.05301 -1.28937 26999 ft 412 kts 317°
2026-05-06 22:48 39.07625 -1.31100 27349 ft 413 kts 317°
2026-05-06 22:48 39.09960 -1.33274 27701 ft 415 kts 317°
2026-05-06 22:49 39.12303 -1.35457 28055 ft 416 kts 317°
2026-05-06 22:49 39.14651 -1.37647 28380 ft 418 kts 317°
2026-05-06 22:49 39.17007 -1.39846 28690 ft 419 kts 317°
2026-05-06 22:49 39.19372 -1.42057 29004 ft 421 kts 317°
2026-05-06 22:50 39.21750 -1.44280 29308 ft 422 kts 317°
2026-05-06 22:50 39.24129 -1.46507 29591 ft 424 kts 317°
2026-05-06 22:50 39.26520 -1.48747 29876 ft 425 kts 317°
2026-05-06 22:50 39.28915 -1.50992 30141 ft 427 kts 317°
2026-05-06 22:51 39.31321 -1.53248 30389 ft 428 kts 316°
2026-05-06 22:51 39.33736 -1.55515 30615 ft 430 kts 316°
2026-05-06 22:51 39.36159 -1.57791 30857 ft 432 kts 316°
2026-05-06 22:51 39.38591 -1.60079 31114 ft 433 kts 316°
2026-05-06 22:52 39.41021 -1.62366 31433 ft 432 kts 316°
2026-05-06 22:52 39.43481 -1.64681 31731 ft 431 kts 316°
2026-05-06 22:52 39.45874 -1.66937 32027 ft 431 kts 316°
2026-05-06 22:52 39.48294 -1.69221 32326 ft 430 kts 316°
2026-05-06 22:53 39.50709 -1.71502 32641 ft 429 kts 316°
2026-05-06 22:53 39.53118 -1.73779 32934 ft 429 kts 316°
2026-05-06 22:53 39.55557 -1.76087 33229 ft 428 kts 316°
2026-05-06 22:53 39.57955 -1.78360 33501 ft 427 kts 316°
2026-05-06 22:54 39.60352 -1.80633 33796 ft 426 kts 316°
2026-05-06 22:54 39.62738 -1.82897 34067 ft 425 kts 316°
2026-05-06 22:54 39.65092 -1.85133 34266 ft 425 kts 316°
2026-05-06 22:54 39.67475 -1.87401 34473 ft 425 kts 316°
2026-05-06 22:55 39.69856 -1.89669 34661 ft 424 kts 316°
2026-05-06 22:55 39.72237 -1.91939 34836 ft 425 kts 316°
2026-05-06 22:55 39.74616 -1.94209 35019 ft 425 kts 316°
2026-05-06 22:55 39.76998 -1.96483 35188 ft 425 kts 316°
2026-05-06 22:56 39.79380 -1.98758 35361 ft 425 kts 316°
2026-05-06 22:56 39.81759 -2.01032 35525 ft 425 kts 316°
2026-05-06 22:56 39.84135 -2.03306 35680 ft 425 kts 317°
2026-05-06 22:56 39.86521 -2.05590 35834 ft 425 kts 317°
2026-05-06 22:57 39.88901 -2.07870 35964 ft 425 kts 317°
2026-05-06 22:57 39.93656 -2.12431 35965 ft 424 kts 317°
2026-05-06 22:58 39.98403 -2.16991 35964 ft 424 kts 317°
2026-05-06 22:58 40.03179 -2.21589 35959 ft 424 kts 317°
2026-05-06 22:59 40.07915 -2.26156 35960 ft 423 kts 317°
2026-05-06 22:59 40.12618 -2.30700 35957 ft 423 kts 317°
2026-05-06 23:00 40.17355 -2.35282 35959 ft 424 kts 317°
2026-05-06 23:00 40.22123 -2.39904 35954 ft 424 kts 317°
2026-05-06 23:01 40.26833 -2.44459 35956 ft 424 kts 317°
2026-05-06 23:01 40.31581 -2.49030 35950 ft 423 kts 317°
2026-05-06 23:02 40.36319 -2.53606 35947 ft 422 kts 316°
2026-05-06 23:02 40.40453 -2.58907 35940 ft 413 kts 306°
2026-05-06 23:03 40.44226 -2.64505 35939 ft 413 kts 306°
2026-05-06 23:03 40.48059 -2.70126 35939 ft 413 kts 306°
2026-05-06 23:04 40.51917 -2.75728 35920 ft 413 kts 307°
2026-05-06 23:04 40.55773 -2.81322 35926 ft 413 kts 307°
2026-05-06 23:05 40.58153 -2.84781 35898 ft 414 kts 307°
2026-05-06 23:05 40.62000 -2.90380 35935 ft 412 kts 307°
2026-05-06 23:06 40.65865 -2.96020 35927 ft 412 kts 307°
2026-05-06 23:06 40.69705 -3.01631 35933 ft 412 kts 307°
2026-05-06 23:07 40.73541 -3.07248 35940 ft 412 kts 307°
2026-05-06 23:07 40.77382 -3.12882 35938 ft 413 kts 307°
2026-05-06 23:08 40.81221 -3.18523 35935 ft 413 kts 307°
2026-05-06 23:08 40.85158 -3.24066 35937 ft 418 kts 315°
2026-05-06 23:08 40.87609 -3.26204 35934 ft 428 kts 328°
2026-05-06 23:09 40.90425 -3.27591 35933 ft 438 kts 341°
2026-05-06 23:09 40.93475 -3.28137 35934 ft 449 kts 353°
2026-05-06 23:09 40.96616 -3.27788 35935 ft 459 kts
2026-05-06 23:09 40.99697 -3.26536 35933 ft 469 kts 19°
2026-05-06 23:10 41.02576 -3.24433 35936 ft 477 kts 29°
2026-05-06 23:10 41.08368 -3.20316 35946 ft 468 kts 14°
2026-05-06 23:11 41.14596 -3.18106 35954 ft 462 kts
2026-05-06 23:11 41.19853 -3.16874 35972 ft 462 kts
2026-05-06 23:12 41.26243 -3.15476 35984 ft 463 kts
2026-05-06 23:12 41.32513 -3.14079 35998 ft 465 kts
2026-05-06 23:13 41.38949 -3.12626 36014 ft 466 kts
2026-05-06 23:13 41.45305 -3.11184 36022 ft 467 kts
2026-05-06 23:14 41.51757 -3.09717 36033 ft 467 kts
2026-05-06 23:14 41.58123 -3.08267 36031 ft 467 kts
2026-05-06 23:15 41.64519 -3.06807 36037 ft 466 kts
2026-05-06 23:15 41.70898 -3.05347 36026 ft 464 kts
2026-05-06 23:16 41.74877 -3.04436 36030 ft 464 kts
2026-05-06 23:16 41.81229 -3.02975 36025 ft 462 kts
2026-05-06 23:17 41.87563 -3.01516 36017 ft 461 kts
2026-05-06 23:17 41.93876 -3.00059 36018 ft 460 kts
2026-05-06 23:18 42.00172 -2.98603 36006 ft 459 kts
2026-05-06 23:18 42.06458 -2.97147 36008 ft 458 kts
2026-05-06 23:19 42.12784 -2.95679 36010 ft 458 kts
2026-05-06 23:19 42.19059 -2.94219 36010 ft 458 kts
2026-05-06 23:20 42.25337 -2.92756 36007 ft 457 kts
2026-05-06 23:20 42.31608 -2.91293 36013 ft 458 kts
2026-05-06 23:21 42.37728 -2.89861 36016 ft 457 kts
2026-05-06 23:21 42.43999 -2.88393 36017 ft 457 kts
2026-05-06 23:22 42.50271 -2.88152 36020 ft 449 kts 352°
2026-05-06 23:22 42.56512 -2.88594 36024 ft 450 kts 352°
2026-05-06 23:23 42.62687 -2.88977 36026 ft 451 kts 353°
2026-05-06 23:23 42.68965 -2.89313 36026 ft 452 kts 353°
2026-05-06 23:24 42.74898 -2.89621 36028 ft 453 kts 353°
2026-05-06 23:24 42.81206 -2.89950 36035 ft 454 kts 353°
2026-05-06 23:25 42.87524 -2.90277 36036 ft 455 kts 353°
2026-05-06 23:25 42.93850 -2.90610 36043 ft 455 kts 353°
2026-05-06 23:26 43.00181 -2.90945 35989 ft 455 kts 354°
2026-05-06 23:26 43.06515 -2.91283 36041 ft 456 kts 354°
2026-05-06 23:27 43.12868 -2.91616 36065 ft 458 kts 354°
2026-05-06 23:27 43.19252 -2.91954 36078 ft 459 kts 354°
2026-05-06 23:28 43.25635 -2.92292 36082 ft 459 kts 354°
2026-05-06 23:28 43.31939 -2.93284 36081 ft 453 kts 339°
2026-05-06 23:28 43.34815 -2.94951 36075 ft 447 kts 326°
2026-05-06 23:29 43.37328 -2.97402 36069 ft 441 kts 314°
2026-05-06 23:29 43.41661 -3.03404 36061 ft 439 kts 313°
2026-05-06 23:30 43.46259 -3.08881 36053 ft 441 kts 319°
2026-05-06 23:30 43.51126 -3.14030 36044 ft 441 kts 320°
2026-05-06 23:31 43.56031 -3.19113 36033 ft 441 kts 320°
2026-05-06 23:31 43.60926 -3.24208 36025 ft 441 kts 320°
2026-05-06 23:32 43.65812 -3.29316 36013 ft 440 kts 320°
2026-05-06 23:32 43.70704 -3.34407 36013 ft 440 kts 321°
2026-05-06 23:33 43.75637 -3.39429 36010 ft 440 kts 321°
2026-05-06 23:33 43.80567 -3.44464 36011 ft 440 kts 321°
2026-05-06 23:34 43.85522 -3.49549 36007 ft 441 kts 321°
2026-05-06 23:34 43.90444 -3.54614 36008 ft 441 kts 321°
2026-05-06 23:35 43.95369 -3.59692 36013 ft 441 kts 321°
2026-05-06 23:35 44.00327 -3.64817 36012 ft 442 kts 321°
2026-05-06 23:36 44.05258 -3.69923 36019 ft 442 kts 321°
2026-05-06 23:36 44.10192 -3.75044 36018 ft 443 kts 321°
2026-05-06 23:37 44.15129 -3.80178 36022 ft 443 kts 321°
2026-05-06 23:37 44.20066 -3.85325 36024 ft 444 kts 321°
2026-05-06 23:38 44.25008 -3.90486 36033 ft 444 kts 321°
2026-05-06 23:38 44.29952 -3.95661 36032 ft 444 kts 321°
2026-05-06 23:39 44.35283 -3.99891 36025 ft 449 kts 341°
2026-05-06 23:39 44.38352 -4.00780 36023 ft 453 kts 353°
2026-05-06 23:39 44.41506 -4.00724 36021 ft 456 kts
2026-05-06 23:39 44.44603 -3.99715 36016 ft 458 kts 18°
2026-05-06 23:40 44.47604 -3.98209 36017 ft 459 kts 17°
2026-05-06 23:40 44.53774 -3.96023 36023 ft 457 kts
2026-05-06 23:41 44.60068 -3.94885 36033 ft 456 kts
2026-05-06 23:41 44.66389 -3.94012 36035 ft 457 kts
2026-05-06 23:42 44.71130 -3.93361 36040 ft 457 kts
2026-05-06 23:42 44.77458 -3.92474 36041 ft 457 kts
2026-05-06 23:43 44.83791 -3.91577 36043 ft 457 kts
2026-05-06 23:43 44.90119 -3.90677 36043 ft 457 kts
2026-05-06 23:44 44.96447 -3.89776 36044 ft 457 kts
2026-05-06 23:44 45.02768 -3.88873 36042 ft 456 kts
2026-05-06 23:45 45.09129 -3.87963 36042 ft 456 kts
2026-05-06 23:45 45.15439 -3.87057 36039 ft 455 kts
2026-05-06 23:46 45.21743 -3.86151 36035 ft 455 kts
2026-05-06 23:46 45.28035 -3.85244 36034 ft 454 kts
2026-05-06 23:47 45.34326 -3.84335 36032 ft 454 kts
2026-05-06 23:47 45.40605 -3.83426 36029 ft 453 kts
2026-05-06 23:48 45.46879 -3.82515 36027 ft 453 kts
2026-05-06 23:48 45.53148 -3.81603 36029 ft 453 kts
2026-05-06 23:49 45.59451 -3.80684 36026 ft 452 kts
2026-05-06 23:49 45.65710 -3.79769 36027 ft 452 kts
2026-05-06 23:50 45.71959 -3.78854 36028 ft 452 kts
2026-05-06 23:50 45.81341 -3.77476 36024 ft 452 kts
2026-05-06 23:51 45.87594 -3.76555 36028 ft 452 kts
2026-05-06 23:51 45.93843 -3.75632 36026 ft 451 kts
2026-05-06 23:52 46.00097 -3.74707 36010 ft 452 kts
2026-05-06 23:52 46.06372 -3.73776 36021 ft 452 kts
2026-05-06 23:53 46.12594 -3.72851 36026 ft 452 kts
2026-05-06 23:53 46.18844 -3.71920 36031 ft 452 kts
2026-05-06 23:54 46.25093 -3.70987 36030 ft 452 kts
2026-05-06 23:54 46.31334 -3.70054 36034 ft 451 kts